Location: JKWMA (FRAC)
(33.1803°N, 84.5512°W)
Time: 00:19:25
(UTC-04:00)

Hubble Space Telescope - Visible Passes

Search period start: 21 March 2019 00:00
Search period end: 31 March 2019 00:00
Orbit: 537 x 540 km, 28.5° (Epoch: 19 March)

Date Brightness Start Highest point End Pass type
(mag) Time Alt. Az. Time Alt. Az. Time Alt. Az.
22 Mar 2.8 21:20:59 10° SSW 21:22:33 15° S 21:22:33 15° S visible
23 Mar 2.4 21:10:01 10° SSW 21:13:02 20° SSE 21:13:02 20° SSE visible
24 Mar 2.1 20:59:11 10° SW 21:02:31 24° SSE 21:03:28 22° SE visible
25 Mar 2.0 20:48:26 10° SW 20:51:58 27° SSE 20:53:49 20° SE visible
25 Mar 3.7 22:28:54 10° WSW 22:29:10 12° WSW 22:29:10 12° WSW visible
26 Mar 1.8 20:37:45 10° SW 20:41:26 31° SSE 20:44:06 16° ESE visible
26 Mar 3.2 22:18:23 10° WSW 22:19:27 17° WSW 22:19:27 17° WSW visible
27 Mar 1.7 20:27:07 10° SW 20:30:53 35° S 20:34:20 12° ESE visible
27 Mar 2.8 22:07:52 10° WSW 22:09:41 23° WSW 22:09:41 23° WSW visible
28 Mar 1.6 20:16:31 10° WSW 20:20:21 38° S 20:24:12 10° ESE visible
28 Mar 2.3 21:57:23 10° WSW 21:59:53 30° SW 21:59:53 30° SW visible
29 Mar 1.9 21:46:54 10° WSW 21:50:02 35° SSW 21:50:02 35° SSW visible
30 Mar 1.7 21:36:28 10° WSW 21:40:11 35° SSW 21:40:11 35° SSW visible
